Angel Fire, NM

6:50 AM MST on December 09, 2019 (GMT -0700)
Angel Fire

Weather History for KAXX - October, 2019

Change the Weather History Date:

Friday, October 11, 2019

  Actual Average (WUND) Record (WUND)
Temperature  
Mean Temperature 31 °F -  
Max Temperature 50 °F - - (-1)
Min Temperature 11 °F - - (-1)
Degree Days  
Heating Degree Days 34    
Moisture  
Dew Point -2 °F    
Average Humidity 29    
Maximum Humidity 69    
Minimum Humidity 9    
Precipitation  
Precipitation 0.00 in - - ()
Sea Level Pressure  
Sea Level Pressure 30.28 in    
Wind  
Wind Speed 5 mph (SW)    
Max Wind Speed 12 mph    
Max Gust Speed 23 mph    
Visibility 10 miles    
Events      
Averages and records for this station are not official NWS values.
T = Trace of Precipitation, MM = Missing Value Source: NWS Daily Summary

Daily Weather History Graph

Daily Weather History Graph

Search for Another Location

Airport or City:

Astronomy

Oct. 11, 2019 Rise Set
Actual Time 7:04 AM MDT 6:30 PM MDT
Civil Twilight 6:38 AM MDT 6:56 PM MDT
Nautical Twilight 6:08 AM MDT 7:26 PM MDT
Astronomical Twilight 5:39 AM MDT 7:56 PM MDT
Moon 5:55 PM MDT (10/11) 4:53 AM MDT (10/11)
Length of Visible Light 12h 17m
Length of Day
11h 25m
Waxing Gibbous, 96% of the Moon is Illuminated
Oct 11
Waxing Gibbous
Oct 13
Full
Oct 21
Last Quarter
Oct 27
New
Nov 4
First Quarter

Hourly Weather History & Observations

Time (MDT) Temp. Windchill Dew Point Humidity Pressure Visibility Wind Dir Wind Speed Gust Speed Precip Events Conditions
12:15 AM 26.2 °F 17.8 °F -8.3 °F 22% 30.19 in 10.0 mi West 8.1 mph - N/A   Clear
12:35 AM 25.0 °F 17.1 °F -8.7 °F 23% 30.19 in 10.0 mi West 6.9 mph - N/A   Clear
12:55 AM 22.5 °F - -7.6 °F 26% 30.18 in 10.0 mi Calm Calm - N/A   Clear
1:15 AM 21.0 °F - -6.7 °F 29% 30.19 in 10.0 mi Calm Calm - N/A   Clear
1:40 AM 22.8 °F 18.2 °F -7.2 °F 27% 30.20 in 10.0 mi SSE 3.5 mph - N/A   Clear
1:55 AM 22.3 °F 13.9 °F -6.3 °F 28% 30.20 in 10.0 mi SE 6.9 mph - N/A   Clear
2:15 AM 20.3 °F 9.0 °F -4.4 °F 34% 30.20 in 10.0 mi SSE 10.4 mph - N/A   Clear
2:35 AM 19.6 °F 9.7 °F -4.4 °F 35% 30.20 in 10.0 mi SE 8.1 mph - N/A   Clear
2:55 AM 20.8 °F 9.0 °F -3.3 °F 35% 30.20 in 10.0 mi SE 11.5 mph - N/A   Clear
3:15 AM 20.8 °F 11.2 °F -2.2 °F 36% 30.20 in 10.0 mi SE 8.1 mph - N/A   Clear
3:35 AM 22.1 °F 14.7 °F -3.3 °F 33% 30.21 in 10.0 mi SSW 5.8 mph - N/A   Clear
3:55 AM 22.1 °F - -3.1 °F 33% 30.21 in 10.0 mi Calm Calm - N/A   Clear
4:15 AM 20.3 °F - -1.1 °F 39% 30.22 in 10.0 mi Calm Calm - N/A   Clear
4:35 AM 19.4 °F 12.8 °F -1.1 °F 41% 30.23 in 10.0 mi ESE 4.6 mph - N/A   Clear
4:55 AM 18.5 °F - -1.5 °F 42% 30.24 in 10.0 mi Calm Calm - N/A   Clear
5:15 AM 13.3 °F - -0.6 °F 54% 30.24 in 10.0 mi Calm Calm - N/A   Clear
5:35 AM 13.6 °F - -0.4 °F 54% 30.25 in 10.0 mi Calm Calm - N/A   Clear
5:55 AM 20.7 °F - -0.9 °F 39% 30.25 in 10.0 mi Calm Calm - N/A   Clear
6:15 AM 20.5 °F - -0.6 °F 40% 30.26 in 10.0 mi Calm Calm - N/A   Clear
6:35 AM 22.1 °F - -2.0 °F 35% 30.27 in 10.0 mi Calm Calm - N/A   Clear
6:55 AM 18.7 °F 11.9 °F -1.3 °F 42% 30.28 in 10.0 mi West 4.6 mph - N/A   Clear
7:15 AM 22.6 °F 14.3 °F -1.8 °F 34% 30.29 in 10.0 mi West 6.9 mph - N/A   Clear
7:35 AM 17.6 °F 12.3 °F 2.8 °F 53% 30.29 in 10.0 mi NNE 3.5 mph - N/A   Clear
7:55 AM 21.2 °F 16.4 °F 3.0 °F 46% 30.30 in 10.0 mi West 3.5 mph - N/A   Clear
8:15 AM 23.9 °F - -0.6 °F 35% 30.31 in 10.0 mi Calm Calm - N/A   Clear
8:35 AM 24.1 °F 18.2 °F 5.9 °F 46% 30.32 in 10.0 mi NE 4.6 mph - N/A   Clear
8:55 AM 28.9 °F - -0.0 °F 29% 30.33 in 10.0 mi Calm Calm - N/A   Clear
9:15 AM 31.1 °F 23.7 °F -1.5 °F 25% 30.33 in 10.0 mi WSW 8.1 mph - N/A   Clear
9:35 AM 32.5 °F 27.1 °F -2.2 °F 23% 30.33 in 10.0 mi West 5.8 mph - N/A   Clear
9:55 AM 33.4 °F 25.4 °F -2.6 °F 21% 30.34 in 10.0 mi WSW 10.4 mph 16.1 mph N/A   Clear
10:20 AM 36.0 °F 29.6 °F -3.3 °F 19% 30.34 in 10.0 mi SW 8.1 mph - N/A   Clear
10:35 AM 36.9 °F 30.7 °F -4.5 °F 17% 30.34 in 10.0 mi WSW 8.1 mph - N/A   Clear
10:55 AM 38.1 °F 33.7 °F -5.8 °F 15% 30.34 in 10.0 mi SW 5.8 mph - N/A   Clear
11:15 AM 39.9 °F 33.9 °F -5.8 °F 14% 30.34 in 10.0 mi WNW 9.2 mph - N/A   Clear
11:35 AM 41.0 °F 35.2 °F -7.4 °F 13% 30.33 in 10.0 mi WSW 9.2 mph 23.0 mph N/A   Clear
11:55 AM 41.7 °F 36.7 °F -4.5 °F 14% 30.33 in 10.0 mi WNW 8.1 mph - N/A   Clear
12:15 PM 41.4 °F 36.2 °F -5.3 °F 14% 30.34 in 10.0 mi West 8.1 mph 18.4 mph N/A   Clear
12:35 PM 43.7 °F 40.3 °F -3.3 °F 14% 30.33 in 10.0 mi SW 5.8 mph 9.2 mph N/A   Clear
12:55 PM 44.1 °F 38.6 °F -2.2 °F 14% 30.33 in 10.0 mi WSW 10.4 mph - N/A   Clear
1:15 PM 44.6 °F 39.7 °F -1.3 °F 15% 30.32 in 10.0 mi WSW 9.2 mph - N/A   Clear
1:35 PM 45.7 °F 41.5 °F -0.6 °F 15% 30.31 in 10.0 mi WSW 8.1 mph - N/A   Clear
1:55 PM 46.2 °F 42.2 °F -1.1 °F 14% 30.31 in 10.0 mi West 8.1 mph - N/A   Clear
2:15 PM 47.1 °F - -1.8 °F 13% 30.30 in 10.0 mi West 8.1 mph - N/A   Clear
2:35 PM 48.4 °F - -3.3 °F 12% 30.30 in 10.0 mi West 11.5 mph 16.1 mph N/A   Clear
2:55 PM 48.6 °F - -3.6 °F 11% 30.29 in 10.0 mi West 10.4 mph - N/A   Clear
3:15 PM 49.1 °F - -4.5 °F 11% 30.29 in 10.0 mi West 9.2 mph - N/A   Clear
3:35 PM 50.0 °F - -4.9 °F 10% 30.29 in 10.0 mi West 9.2 mph - N/A   Clear
3:55 PM 50.4 °F - -5.3 °F 10% 30.29 in 10.0 mi WSW 9.2 mph - N/A   Clear
4:15 PM 50.4 °F - -7.2 °F 9% 30.28 in 10.0 mi SW 10.4 mph - N/A   Clear
4:35 PM 50.9 °F - -5.8 °F 9% 30.28 in 10.0 mi SW 6.9 mph - N/A   Clear
4:55 PM 50.2 °F - -6.7 °F 9% 30.28 in 10.0 mi SW 8.1 mph - N/A   Clear
5:15 PM 49.3 °F - -6.5 °F 10% 30.28 in 10.0 mi West 11.5 mph - N/A   Clear
5:35 PM 47.5 °F - -7.1 °F 10% 30.28 in 10.0 mi West 10.4 mph - N/A   Clear
5:55 PM 46.0 °F 41.0 °F -7.2 °F 11% 30.28 in 10.0 mi West 10.4 mph - N/A   Clear
6:15 PM 43.2 °F 40.5 °F -6.7 °F 12% 30.28 in 10.0 mi SW 4.6 mph 10.4 mph N/A   Clear
6:35 PM 40.6 °F 38.6 °F -7.8 °F 13% 30.29 in 10.0 mi SSE 3.5 mph - N/A   Clear
6:55 PM 36.9 °F 34.3 °F -7.2 °F 15% 30.29 in 10.0 mi SSW 3.5 mph - N/A   Clear
7:15 PM 36.9 °F 34.3 °F -7.2 °F 15% 30.29 in 10.0 mi SSW 3.5 mph - N/A   Clear
7:35 PM 33.3 °F 28.9 °F -2.2 °F 22% 30.29 in 10.0 mi South 4.6 mph - N/A   Clear
7:55 PM 34.9 °F 29.0 °F 3.4 °F 27% 30.30 in 10.0 mi SSE 6.9 mph - N/A   Clear
8:15 PM 32.5 °F 26.2 °F 5.9 °F 33% 30.30 in 10.0 mi South 6.9 mph - N/A   Clear
8:35 PM 31.8 °F 24.6 °F 6.1 °F 34% 30.30 in 10.0 mi South 8.1 mph - N/A   Clear
8:55 PM 28.6 °F 19.3 °F 6.1 °F 39% 30.30 in 10.0 mi SSE 10.4 mph - N/A   Clear
9:15 PM 26.4 °F 20.9 °F 7.7 °F 45% 30.31 in 10.0 mi SSW 4.6 mph - N/A   Clear
9:35 PM 24.3 °F - 3.6 °F 41% 30.31 in 10.0 mi Calm Calm - N/A   Clear
9:55 PM 22.6 °F 18.0 °F 5.9 °F 49% 30.31 in 10.0 mi SE 3.5 mph - N/A   Clear
10:15 PM 21.6 °F - 7.0 °F 54% 30.31 in 10.0 mi Calm Calm - N/A   Clear
10:35 PM 14.9 °F - 3.7 °F 61% 30.31 in 10.0 mi Calm Calm - N/A   Clear
10:55 PM 17.2 °F - 4.1 °F 56% 30.31 in 10.0 mi Calm Calm - N/A   Clear
11:15 PM 14.0 °F - 2.8 °F 61% 30.31 in 10.0 mi Calm Calm - N/A   Clear
11:35 PM 12.4 °F - 3.7 °F 68% 30.31 in 10.0 mi Calm Calm - N/A   Clear
11:55 PM 11.1 °F - 2.8 °F 69% 30.30 in 10.0 mi Calm Calm - N/A   Clear